ONEWEB-0080, 45426

Orbit data source: Space-Track

ONEWEB-0080, 45426 is a payload satellite owned by One Web (UK) in LEO that was launched on Sat, 21 Mar 2020 UTC via a SOYUZ-2-1B launch vehicle from the Tyuratam Missile And Space Complex (TTMTR). Payload-class satellites include a variety of spacecraft equipped with specific instruments for various scientific and technological missions. These include communications satellites like Starlink; space stations such as the ISS; scientific satellites like the Hubble; Earth observation satellites from companies like Planet Labs, Umbra, and HawkEye 360; GPS; miniature CubeSats for education and research; and military/defense satellites.

Loading next visibility...
Identifier
45426, 2020-020C
Orbit
LEO
Last TLE update
5 hours ago
Origin
Manufacturer
One Web
Mission
Operational Commercial Communications
Bus & Motor
ARROW, Unknown motor
Mass
148 kg wet, ~140 kg dry
Launch date (UTC)
2020-03-21 (5 years ago)
Launch vehicle
SOYUZ-2-1B
Launch site
Tyuratam Missile And Space Complex (TTMTR)
Object type
Payload
Rocket body
Debris
Shape & HBR
Trap Box + 2 Pan, 5 m
Radar Cross Section
2.957 m², Large (>1 m²)

Expand to show TLE details & history

TLE from 5 hours ago
0 ONEWEB-0080
1 45426U 20020C   25192.14675105  .00000105  00000-0  25973-3 0  9998
2 45426  87.8831  89.0390 0002236  79.6908 280.4472 13.11419920258013
Epoch: 2025-07-11T03:31Z
TLE epoch observation values (Epoch: 2025-07-11T03:31:19.29Z)
Latitude
-0.00003°
Longitude
106.90576°
Altitude
1,220.253 km
Speed
7.244 km/s
True Right ascension
05h 56m 09s
True Declination
0° 00' 00"
Sunlit
Object was in daylight at epoch
Visualization orbit readout
Latitude
-4.9653°
Longitude
-72.9494°
Altitude
1,221.8 km
Speed
7.243 km/s
Apparent Right ascension
15h 21m 15s
Apparent Declination
-45° 08' 07"
Sunlit
Object is in full shadow
Visualization observer readout
Local Sidereal Time
20:24:54
Azimuth
226.302° WSW
Elevation
-18.849°
Doppler factor
1
Orbital elements
Apogee altitude
1,216.487 km
Perigee altitude
1,213.092 km
Semi-major axis
7,592.926 km
Eccentricity
0.00022
Inclination
87.8831°
RAAN
89.039°
Arg. of periapsis
79.6908°
True anomaly
Unknown
Mean anomaly
280.4472°
Eccentric anomaly
Unknown
Mean motion
3.28042 °/min
Orbital period
109.74 mins
BSTAR
0.00025973
Loading maneuver chart data...
Loading SW <> Apogee altitude chart data...
Loading historical data...
Loading historical data...
Loading historical data...
Loading historical data...
Loading historical data...
Loading historical data...
Loading historical data...

ONEWEB-0080 Visibility forecast

Observer location: undefined°, undefined°

Span
Click to sort rows by Start time (UTC) header in descending order
Start Az.
Max El. time (UTC)
Max El. Az.
Max El.
End time (UTC)
End Az.
11 mins2025-07-11 16:27:24.774Z131.998° SE2025-07-11 16:33:24.774Z72.204° E26.026°2025-07-11 16:38:24.774Z24.84° NE
12 mins2025-07-11 18:17:24.774Z208.406° SW2025-07-11 18:22:24.774Z273.113° WNW37.251°2025-07-11 18:29:24.774Z349.563° N
9 mins2025-07-12 03:57:24.774Z34.129° NE2025-07-12 04:01:24.774Z72.907° E21.597°2025-07-12 04:06:24.774Z121.364° SE
12 mins2025-07-12 05:46:24.774Z349.677° N2025-07-12 05:52:24.774Z262.011° W41.269°2025-07-12 05:58:24.774Z197.884° SSW
|